www.pogodaiklimat.ru

Погода и климат >> Архив погоды >> Турция >> Датча


ПОГОДА в Датче

  • Прогноз погоды в Датче
  • Монитор погоды в Датче

АРХИВ ПОГОДЫ в Датче

Время (UTC), дата Ветер
(напр.,м/с)
 
Видим.   Явления Облачность Т
(С)
Тd
(С)
f
(%)
Тe
(С)
Тes
(С)
Комфортность P
(гПа)
Po
(гПа)
Тmin
(С)
Tmax
(С)
R
(мм)
R24
(мм)
S
(см)
10 11.08 ЮВ 2 20 км ясно +32.0 +23.1 59 +42 +63 опасность
перегрева
1005.0 1001.8
11 11.08 Ю 2 20 км ясно +33.9 +21.7 49 +42 +62 опасность
перегрева
1004.7 1001.6
12 11.08 Ю 3
{6}
20 км ясно +31.7 +24.2 65 +44 +57 опасность
перегрева
1004.5 1001.3
13 11.08 Ю 3 20 км ясно +35.0 +16.7 34 +38 +47 очень
душно
1004.0 1000.9
14 11.08 ЮВ 2 20 км ясно +32.7 +18.5 43 +37 +44 очень
душно
1003.9 1000.7
15 11.08 ЮВ 2
{5}
20 км ясно +33.0 +16.7 38 +36 +40 очень
душно
1003.7 1000.6
06 12.08 ЮВ 1
{2}
20 км ясно +27.6 +22.6 74 +36 +43 очень
душно
1004.0 1000.8 +24.4
07 12.08 ЮВ 2 20 км ясно +28.1 +23.1 74 +38 +49 очень
душно
1004.4 1001.2
08 12.08 Ю 3 20 км ясно +28.9 +23.4 72 +39 +52 опасность
солнечного
удара
1004.5 1001.3
09 12.08 Ю 2
{4}
20 км ясно +30.2 +23.7 68 +41 +59 опасность
перегрева
1004.5 1001.3
10 12.08 Ю 2 20 км ясно +31.0 +23.5 64 +42 +60 опасность
перегрева
1004.4 1001.2
11 12.08 Ю 3 20 км ясно +32.0 +22.8 58 +42 +58 опасность
перегрева
1004.1 1000.9
12 12.08 Ю 3
{4}
20 км ясно +32.9 +23.7 59 +44 +58 опасность
перегрева
1003.6 1000.5
13 12.08 СВ 4 20 км ясно +32.4 +19.3 46 +38 +45 очень
душно
1003.2 1000.0
14 12.08 СВ 3 20 км ясно +32.9 +20.5 48 +40 +45 очень
душно
1003.0 999.9
15 12.08 Ю 2
{7}
20 км ясно +31.7 +20.4 51 +38 +42 очень
душно
1002.8 999.6
06 13.08 В 2
{4}
20 км ясно +27.2 +22.9 77 +36 +42 очень
душно
1003.9 1000.7 +24.0
07 13.08 ЮВ 2 20 км ясно +27.6 +22.8 75 +37 +47 очень
душно
1004.0 1000.8
08 13.08 Ю 3 20 км ясно +29.1 +22.2 66 +38 +51 опасность
солнечного
удара
1004.1 1000.9
09 13.08 Ю 3
{4}
20 км ясно +30.8 +22.0 59 +39 +55 опасность
солнечного
удара
1004.2 1001.0
10 13.08 Ю 3 20 км ясно +30.9 +22.9 62 +41 +56 опасность
перегрева
1004.0 1000.8
11 13.08 ЮВ 2 20 км ясно +29.8 +21.3 60 +37 +55 опасность
солнечного
удара
1003.7 1000.5
12 13.08 Ю 2
{4}
20 км ясно +30.9 +21.5 57 +39 +54 опасность
солнечного
удара
1003.4 1000.2
13 13.08 Ю 2 20 км ясно +31.7 +21.9 56 +40 +52 опасность
солнечного
удара
1003.2 1000.0
14 13.08 Ю 2 20 км ясно +30.6 +22.3 61 +40 +46 очень
душно
1002.8 999.6
15 13.08 СЗ 2
{6}
20 км ясно +31.7 +20.4 51 +38 +41 очень
душно
1002.8 999.6
06 14.08 В 2
{3}
20 км ясно +27.0 +21.6 72 +34 +40 очень
душно
1003.5 1000.3 +24.1
07 14.08 В 2 20 км ясно +27.6 +21.7 70 +35 +45 очень
душно
1003.7 1000.5
08 14.08 Ю 3 20 км ясно +29.1 +21.9 65 +37 +50 очень
душно
1003.9 1000.7
09 14.08 ЮВ 2
{4}
20 км ясно +30.1 +20.7 57 +37 +56 опасность
солнечного
удара
1003.8 1000.6
10 14.08 Ю 4 20 км ясно +29.6 +22.7 66 +39 +51 опасность
солнечного
удара
1004.0 1000.8
11 14.08 Ю 3 20 км ясно +30.3 +23.1 65 +40 +57 опасность
солнечного
удара
1003.9 1000.7
12 14.08 Ю 2
{7}
20 км ясно +31.1 +22.0 58 +40 +56 опасность
солнечного
удара
1003.6 1000.4
13 14.08 Ю 3 20 км ясно +30.7 +21.3 57 +38 +49 очень
душно
1003.4 1000.2
14 14.08 СВ 2 20 км ясно +29.3 +20.6 59 +36 +43 очень
душно
1003.6 1000.4
15 14.08 ЮЗ 2
{5}
20 км 3/3 1200 м
[Cu hum]
+30.3 +20.6 56 +37 +39 очень
душно
1003.5 1000.3
06 15.08 В 2
{3}
20 км 4/4 1200 м
[Cu med, cong]
+26.9 +20.6 68 +33 +37 очень
душно
1005.1 1001.9 +23.6
07 15.08 ЮВ 2 8000 м дымка 3/3 1000 м
[Cu med, cong]
+27.0 +21.4 71 +34 +41 очень
душно
1005.3 1002.1
08 15.08 Ю 3 20 км ясно +29.1 +21.7 64 +37 +49 очень
душно
1005.1 1001.9
09 15.08 Ю 3
{5}
20 км 3/3 1200 м
[Cu med, cong]
+29.7 +22.0 63 +38 +49 очень
душно
1005.3 1002.1
10 15.08 Ю 3 20 км 3/3 1000 м
[Cu med, cong]
+30.4 +21.3 58 +38 +49 очень
душно
1005.1 1001.9
11 15.08 ЮЗ 3 20 км 3/3 1000 м
[Cu med, cong]
+31.8 +17.6 43 +36 +47 очень
душно
1004.8 1001.6
12 15.08 Ю 3
{6}
20 км ясно +31.9 +17.4 42 +36 +49 очень
душно
1004.6 1001.4
13 15.08 СВ 3 20 км ясно +31.3 +19.3 49 +37 +46 очень
душно
1004.1 1000.9
14 15.08 ЮЗ 2 20 км ясно +30.7 +20.1 53 +37 +44 очень
душно
1004.3 1001.1
15 15.08 ЮВ 2
{5}
20 км ясно +29.4 +20.4 58 +36 +39 очень
душно
1004.5 1001.3
06 16.08 ЮВ 1
{3}
8000 м дымка ясно +26.8 +21.6 73 +34 +41 очень
душно
1006.8 1003.6 +23.1
07 16.08 Ю 2 8000 м дымка ясно +27.5 +21.6 70 +35 +45 очень
душно
1007.0 1003.8
08 16.08 Ю 3 20 км ясно +29.2 +22.3 66 +38 +49 очень
душно
1007.1 1003.9
09 16.08 Ю 3
{5}
20 км ясно +30.5 +22.5 62 +40 +55 опасность
солнечного
удара
1007.0 1003.8
10 16.08 Ю 3 20 км ясно +30.3 +22.8 64 +40 +57 опасность
солнечного
удара
1007.0 1003.8
11 16.08 ЮВ 3 20 км ясно +30.7 +21.9 59 +39 +55 опасность
солнечного
удара
1006.8 1003.6
12 16.08 Ю 3
{5}
20 км ясно +31.5 +22.9 60 +41 +55 опасность
перегрева
1006.6 1003.4
13 16.08 В 3 20 км ясно +30.8 +21.7 58 +39 +49 очень
душно
1006.2 1003.0
14 16.08 Ю 2 20 км ясно +31.2 +22.3 59 +40 +47 очень
душно
1006.0 1002.8
15 16.08 С 2
{6}
20 км ясно +31.0 +18.4 47 +36 +39 очень
душно
1005.6 1002.4
06 17.08 СЗ 11
{14}
20 км ясно +29.5 +17.7 49 +34 +34 очень
душно
1005.4 1002.2 +27.2
07 17.08 С 10 20 км ясно +30.3 +15.9 42 +33 +34 душно 1005.8 1002.7
08 17.08 СЗ 10 20 км ясно +30.6 +16.9 44 +34 +35 очень
душно
1006.0 1002.9
09 17.08 СЗ 9
{15}
20 км ясно +31.6 +16.7 41 +35 +37 очень
душно
1006.3 1003.2
10 17.08 СЗ 8 20 км ясно +31.8 +16.9 41 +35 +39 очень
душно
1005.9 1002.8
11 17.08 С 9 20 км ясно +32.0 +15.4 37 +34 +36 душно 1005.5 1002.4
12 17.08 СЗ 10
{15}
20 км ясно +31.5 +15.0 37 +34 +34 душно 1004.9 1001.8
13 17.08 СЗ 11 20 км 3/3 1000 м
[Cu med, cong]
+31.5 +15.8 39 +34 +34 душно 1004.7 1001.6
14 17.08 СЗ 9 20 км 3/3 1000 м
[Cu med, cong]
+30.6 +15.8 41 +33 +34 душно 1005.1 1001.9
15 17.08 СЗ 11-19
{19}
20 км 3/3 1200 м
[Cu med, cong]
+29.4 +16.2 45 +33 +33 душно 1004.1 1000.9
06 18.08 С 13
{17}
20 км ясно +24.9 +12.1 45 +27 +27 жарко 1005.0 1001.8 +23.8
07 18.08 С 10 20 км ясно +25.9 +11.9 42 +27 +28 жарко 1005.3 1002.1
08 18.08 СЗ 12 20 км ясно +26.2 +12.9 44 +28 +28 жарко 1005.1 1001.9
09 18.08 СЗ 10
{19}
20 км ясно +27.8 +12.5 39 +29 +30 жарко 1005.2 1002.0

 

Местоположение метеостанции Датча (Турция): широта 36.70 долгота 27.67 высота над уровнем моря 10 м.

В архиве по умолчанию представлена погода в Датче за последнюю неделю. Архивные данные за месяц целиком и за предыдущие месяцы, начиная с января 2011 года, Вы можете получить, выбрав интересующий диапазон дат из раскрывающегося списка и нажав кнопку "Ввод!".


*Определитесь, кто Вы:
робот инопланетянин человек

Внимание! Время в таблицах - всемирное. Для получения местного времени необходимо прибавить поправку, которая равна 2 ч.

Смотрите также архив погоды в соседних городах и на ближайших метеорологических станциях:

Погода в Бодруме (Турция) (42 км)
Погода на Родосе (Греция) (50 км)
Погода на Косе (Греция) (54 км)
Погода в Мармарисе (Турция) (56 км)
Погода в Аэропорту Милас-Бодрум (Турция) (59 км)
Погода в Калимносе (Греция) (71 км)
Погода в Мугле (Турция) (85 км)
Погода в Даламане (Турция) (99 км)
Погода в Леросе (Греция) (115 км)
Погода в Астипалее (Греция) (117 км)

Пояснения к столбцам:

Ветер - указаны скорость ветра в м/с - средняя за 10 мин, порывы в срок и между сроками (в фигурных скобках) и направление, откуда дует ветер: С - северный, СВ - северо-восточный, В - восточный, ЮВ - юго-восточный, Ю - южный, ЮЗ - юго-западный, З - западный, СЗ - северо-западный.
Видимость - горизонтальная дальность видимости в метрах или километрах. При видимости от 1 до 10 км при отсутствии осадков обычно наблюдается дымка, при ухудшении видимости до 1 км и менее - туман. В сухую погоду видимость может ухудшаться дымом, пылью или мглою.
Явления - указаны атмосферные явления, наблюдавшиеся в срок или в последний час перед сроком; фигурными скобками обозначены явления, наблюдавшиеся между сроками (за 1-3 часа до срока); квадратными скобками обозначены град или гололедные отложения с указанием их диаметра в мм.
Облачность - указаны через наклонную черту общая и нижняя облачность в баллах и высота нижней границы облаков в метрах; квадратными скобками обозначены формы облаков: Ci - перистые, Cs - перисто-слоистые, Cc - перисто-кучевые, Ac - высококучевые, As - высокослоистые, Sc - слоисто-кучевые, Ns - слоисто-дождевые, Cu - кучевые, Cb - кучево-дождевые. Подробнее классификацию облаков см. в Атласе облаков (PDF).
T - Температура воздуха - температура, измеренная на высоте 2 м над землей.
Td - Температура точки росы - температура, при понижении до которой содержащийся в воздухе водяной пар достигнет насыщения.
f - Относительная влажность воздуха - влажноcть воздуха, измеренная на высоте 2 м над землей.
Te - Эффективная температура - температура, которую ощущает одетый по сезону человек в тени. Характеристика душности погоды. При расчете учитывается влияние влажности воздуха и скорости ветра на теплоощущения человека.
Tes - Эффективная температура на солнце - температура, которую ощущает человек, с поправкой на солнечный нагрев. Характеристика знойности погоды. Зависит от высоты солнца над горизонтом, облачности и скорости ветра. Ночью, в пасмурную погоду, а также при ветре 12 м/с и более поправка равна нулю.
P - Атмосферное давление - приведенное к уровню моря атмосферное давление.
Po - Атмосферное давление - измеренное на уровне метеостанции атмосферное давление.
Tmin - Минимальная температура - минимум температуры воздуха на высоте 2 м над землей.
Tmax - Максимальная температура - максимум температуры воздуха на высоте 2 м над землей.
R - Количество осадков - Количество выпавших осадков за период времени, мм. При наведении курсора мыши на число - период времени, за который выпало указанное количество осадков.
R24 - Количество осадков - Количество выпавших осадков за 24 часа, мм.
S - Снежный покров - Высота снежного покрова, см. При наведении курсора мыши на число - состояние снежного покрова и степень покрытия местности в баллах.